FW9878 Weather Reports


time (UTC)temp
C
wind
direction
speed
KPH
gust
KPH
rain 1hr
cm
rain 24hr
cm
rain mn
cm
humidity
%
barometer
mb
20260505040030 19 164 3.2 6.4 0.00 0.51 0.51 70 1004.6
20260505034532 19 159 1.6 6.4 0.00 0.51 0.51 69 1004.6
20260505033032 20 180 1.6 4.8 0.00 0.51 0.51 69 1004.7
20260505031529 20 178 1.6 4.8 0.00 0.51 0.51 68 1004.6
20260505030029 20 162 1.6 6.4 0.00 0.51 0.51 66 1004.4
20260505024540 21 168 3.2 6.4 0.00 0.51 0.51 65 1004.0
20260505023030 21 156 4.8 11.3 0.00 0.51 0.51 64 1003.8
20260505021530 21 153 3.2 11.3 0.00 0.51 0.51 63 1003.5
20260505020148 21 227 4.8 9.7 0.00 0.51 0.51 63 1003.2
20260505020031 21 227 4.8 9.7 0.00 0.51 0.51 63 1003.2
20260505014536 21 156 3.2 11.3 0.00 0.51 0.51 62 1003.1
20260505013045 22 182 3.2 9.7 0.00 0.51 0.51 61 1003.1
20260505011534 22 187 4.8 9.7 0.00 0.51 0.51 60 1002.8
20260505010029 22 182 4.8 9.7 0.00 0.51 0.51 59 1002.6
20260505004531 23 142 4.8 14.5 0.00 0.51 0.51 56 1002.4
20260505003029 24 167 4.8 14.5 0.00 0.51 0.51 54 1002.3
20260505001536 25 221 6.4 20.9 0.00 0.51 0.51 51 1002.3
20260505000110 25 195 4.8 16.1 0.00 0.51 0.51 52 1002.2
20260505000038 25 195 4.8 16.1 0.00 0.51 0.51 52 1002.2
20260504234528 26 147 6.4 19.3 0.03 0.51 0.51 51 1002.1
20260504233029 26 149 8.0 24.1 0.03 0.51 0.51 50 1002.2
20260504231540 26 145 9.7 19.3 0.03 0.51 0.51 49 1002.6
20260504230030 26 214 6.4 17.7 0.03 0.51 0.51 49 1002.8
20260504224536 26 168 8.0 16.1 0.00 0.48 0.48 48 1002.8
20260504223107 26 128 9.7 17.7 0.00 0.48 0.48 49 1002.8
20260504223031 26 128 9.7 17.7 0.00 0.48 0.48 49 1002.8
20260504221530 25 137 6.4 19.3 0.00 0.48 0.48 55 1002.8
20260504220034 25 185 8.0 17.7 0.00 0.48 0.48 59 1002.9
20260504214554 23 168 6.4 12.9 0.00 0.48 0.48 66 1002.9
20260504213030 22 153 6.4 12.9 0.00 0.48 0.48 71 1003.1
20260504211532 21 149 6.4 9.7 0.15 0.48 0.48 75 1003.5
20260504210039 20 157 4.8 8.0 0.36 0.48 0.48 82 1003.6
20260504204528 18 146 4.8 12.9 0.48 0.48 0.48 86 1003.5
20260504203033 18 170 3.2 16.1 0.48 0.48 0.48 83 1003.8
20260504201530 18 178 4.8 20.9 0.23 0.23 0.23 82 1005.5
20260504200028 18 199 1.6 32.2 0.13 0.13 0.13 79 1005.6
20260504194616 21 296 19.3 33.8 0.00 0.00 0.00 66 1006.4
20260504194543 21 296 19.3 33.8 0.00 0.00 0.00 66 1006.4
20260504193031 22 76 1.6 3.2 0.00 0.00 0.00 60 1004.7
20260504191535 22 82 1.6 3.2 0.00 0.00 0.00 60 1005.0
20260504190033 23 146 0.0 9.7 0.00 0.00 0.00 58 1004.9
20260504184537 23 186 3.2 12.9 0.00 0.00 0.00 56 1005.0
20260504183115 23 0 1.6 16.1 0.00 0.00 0.00 58 1005.4
20260504183030 23 0 1.6 16.1 0.00 0.00 0.00 58 1005.4
20260504181528 23 159 6.4 14.5 0.00 0.00 0.00 59 1005.2
20260504180040 22 246 3.2 12.9 0.00 0.00 0.00 61 1005.2
20260504174529 22 152 1.6 12.9 0.00 0.00 0.00 63 1005.4
20260504173035 21 172 3.2 6.4 0.00 0.00 0.00 63 1005.5
20260504171530 20 142 3.2 8.0 0.00 0.00 0.00 67 1006.1
20260504081529 14 0 0.0 0.0 0.00 0.03 0.00 81 1008.4
20260504050120 16 131 1.6 8.0 0.00 0.03 0.00 69 1008.0
20260504044532 16 275 1.6 6.4 0.00 0.03 0.03 68 1008.5
20260504043031 16 147 1.6 4.8 0.00 0.03 0.03 68 1008.9
20260504041528 16 257 1.6 9.7 0.00 0.03 0.03 68 1009.1